Weather History for KHST - January, 2014

Change the Weather History Date:

Thursday, January 16, 2014

  Actual Average Record
Temperature  
Mean Temperature 54 °F -  
Max Temperature 62 °F 74 °F 85 °F (1946)
Min Temperature 45 °F 52 °F 34 °F (1956)
Degree Days  
Heating Degree Days 12    
Growing Degree Days 4 (Base 50)    
Moisture  
Dew Point 45 °F    
Average Humidity 71    
Maximum Humidity 100    
Minimum Humidity 31    
Precipitation  
Precipitation 0.00 in - - ()
Sea Level Pressure  
Sea Level Pressure 30.08 in    
Wind  
Wind Speed 9 mph (NW)    
Max Wind Speed 21 mph    
Max Gust Speed 31 mph    
Visibility 10 miles    
Events      
Averages and records for this station are not official NWS values.
T = Trace of Precipitation, MM = Missing Value Source: NWS Daily Summary

Daily Weather History Graph

Daily Weather History Graph

Search for Another Location

Airport or City:

Trip Planner

Search our weather history database for the weather conditions in past years. The results will help you decide how hot, cold, wet, or windy it might be!

Date:

Astronomy

Jan. 16, 2014 Rise Set
Actual Time 7:09 AM EST 5:53 PM EST
Civil Twilight 6:44 AM EST 6:18 PM EST
Nautical Twilight 6:16 AM EST 6:46 PM EST
Astronomical Twilight 5:48 AM EST 7:14 PM EST
Moon 6:34 PM EST (1/16) 7:10 AM EST (1/16)
Length of Visible Light 11h 33m
Length of Day
10h 44m
Full, 100% of the Moon is Illuminated
Jan 16
Full
Jan 24
Last Quarter
Jan 30
New
Feb 6
First Quarter
Feb 14
Full

Hourly Weather History & Observations

Time (EST) Temp. Windchill Dew Point Humidity Pressure Visibility Wind Dir Wind Speed Gust Speed Precip Events Conditions
12:58 AM 58.6 °F - 55.4 °F 89% 30.02 in 10.0 mi WNW 5.8 mph - N/A   Partly Cloudy
1:58 AM 58.1 °F - 55.4 °F 91% 30.01 in 10.0 mi West 3.5 mph - N/A   Scattered Clouds
2:58 AM 57.7 °F - 55.8 °F 93% 30.00 in 10.0 mi Calm Calm - N/A   Overcast
3:58 AM 57.2 °F - 57.2 °F 100% 29.99 in 10.0 mi SSE 2.3 mph - N/A   Mostly Cloudy
4:58 AM 57.4 °F - 57.4 °F 100% 29.99 in 10.0 mi WNW 2.3 mph - N/A   Mostly Cloudy
5:18 AM 59.0 °F - 59.0 °F 100% 30.00 in 10.0 mi WNW 8.1 mph - N/A   Mostly Cloudy
5:43 AM 59.0 °F - 59.0 °F 100% 30.00 in 10.0 mi NW 12.7 mph - N/A   Overcast
5:58 AM 59.5 °F - 58.3 °F 96% 30.01 in 10.0 mi NW 13.8 mph - N/A   Overcast
6:58 AM 57.6 °F - 50.7 °F 78% 30.03 in 10.0 mi NNW 18.4 mph - N/A   Overcast
7:58 AM 55.2 °F - 47.5 °F 75% 30.08 in 10.0 mi NNW 15.0 mph - N/A   Clear
8:58 AM 54.7 °F - 48.0 °F 78% 30.10 in 10.0 mi NNW 17.3 mph - N/A   Partly Cloudy
9:58 AM 54.9 °F - 45.9 °F 72% 30.12 in 10.0 mi NNW 18.4 mph - N/A   Partly Cloudy
10:58 AM 58.1 °F - 43.9 °F 59% 30.13 in 10.0 mi NNW 17.3 mph 26.5 mph N/A   Clear
11:58 AM 59.9 °F - 41.4 °F 50% 30.11 in 10.0 mi NW 20.7 mph 31.1 mph N/A   Clear
12:58 PM 61.7 °F - 40.1 °F 45% 30.08 in 10.0 mi NW 16.1 mph 26.5 mph N/A   Clear
1:58 PM 62.1 °F - 36.3 °F 38% 30.08 in 10.0 mi NNW 16.1 mph 25.3 mph N/A   Clear
2:58 PM 61.2 °F - 32.4 °F 34% 30.08 in 10.0 mi NNW 16.1 mph 25.3 mph N/A   Clear
3:58 PM 61.0 °F - 30.2 °F 31% 30.07 in 10.0 mi NNW 16.1 mph 25.3 mph N/A   Clear
4:58 PM 59.4 °F - 30.9 °F 34% 30.09 in 10.0 mi NNW 15.0 mph 23.0 mph N/A   Clear
5:58 PM 56.7 °F - 31.8 °F 39% 30.11 in 10.0 mi NNW 10.4 mph - N/A   Clear
6:58 PM 52.5 °F - 34.5 °F 50% 30.13 in 10.0 mi NNW 4.6 mph - N/A   Clear
7:58 PM 50.9 °F - 35.8 °F 56% 30.15 in 10.0 mi NW 2.3 mph - N/A   Clear
8:58 PM 49.3 °F - 38.5 °F 66% 30.16 in 10.0 mi Calm Calm - N/A   Clear
9:58 PM 45.5 °F - 44.6 °F 97% 30.18 in 10.0 mi South 2.3 mph - N/A   Clear
10:58 PM 45.7 °F - 42.8 °F 90% 30.18 in 10.0 mi WNW 1.2 mph - N/A   Clear
11:58 PM 46.4 °F 43.5 °F 41.0 °F 81% 30.17 in 10.0 mi NW 5.8 mph - N/A   Clear